This is the latest recevied weather packets stored in our database for station/object WS2Z. If no packets are shown the sender has not sent any weather packets the latest 10 day(s).
| Time | Temp. | Humidity | Pressure | Rain* | Wind** | Luminosity | Snow |
|---|---|---|---|---|---|---|---|
| 1777680838 | 25.56° C | 70% | 1011.4 hPa | 0 mm | - | 0 W/m² | - |
| 1777680535 | 25.56° C | 69% | 1011.3 hPa | 0 mm | - | 1 W/m² | - |
| 1777680234 | 26.11° C | 68% | 1011.4 hPa | 0 mm | - | 2 W/m² | - |
| 1777679930 | 26.11° C | 67% | 1011.2 hPa | 0 mm | - | 3 W/m² | - |
| 1777679625 | 26.11° C | 65% | 1011.1 hPa | 0 mm | - | 6 W/m² | - |
| 1777679320 | 26.67° C | 63% | 1011.2 hPa | 0 mm | - | 9 W/m² | - |
| 1777679018 | 26.67° C | 63% | 1011.1 hPa | 0 mm | - | 12 W/m² | - |
| 1777678716 | 27.22° C | 61% | 1011 hPa | 0 mm | - | 17 W/m² | - |
| 1777678413 | 27.22° C | 59% | 1011.1 hPa | 0 mm | - | 21 W/m² | - |
| 1777678109 | 27.78° C | 58% | 1011 hPa | 0 mm | - | 26 W/m² | - |
| 1777677807 | 27.78° C | 58% | 1011.1 hPa | 0 mm | - | 34 W/m² | - |
| 1777677504 | 27.78° C | 57% | 1011.1 hPa | 0 mm | - | 41 W/m² | - |
| 1777677202 | 28.33° C | 57% | 1010.9 hPa | 0 mm | - | 49 W/m² | - |
| 1777676900 | 28.33° C | 57% | 1011.1 hPa | 0 mm | - | 59 W/m² | - |
| 1777676599 | 28.89° C | 54% | 1011.1 hPa | 0 mm | - | 69 W/m² | - |
| 1777676296 | 28.89° C | 50% | 1011 hPa | 0 mm | - | 84 W/m² | - |
| 1777675993 | 28.89° C | 53% | 1010.9 hPa | 0 mm | - | 100 W/m² | - |
| 1777675689 | 28.89° C | 54% | 1010.9 hPa | 0 mm | - | 116 W/m² | - |
| 1777675387 | 28.89° C | 54% | 1010.9 hPa | 0 mm | - | 133 W/m² | - |
| 1777675083 | 28.89° C | 53% | 1010.7 hPa | 0 mm | - | 148 W/m² | - |
| 1777674779 | 28.89° C | 53% | 1010.8 hPa | 0 mm | - | 170 W/m² | - |
| 1777674476 | 29.44° C | 51% | 1010.8 hPa | 0 mm | - | 154 W/m² | - |
| 1777674174 | 28.89° C | 51% | 1010.5 hPa | 0 mm | - | 175 W/m² | - |
| 1777673870 | 28.89° C | 51% | 1010.5 hPa | 0 mm | - | 190 W/m² | - |
| 1777673566 | 28.89° C | 50% | 1010.5 hPa | 0 mm | - | 214 W/m² | - |
* Rain latest hour (hover to see other rain measurements)
** Current wind speed in m/s (hover to see current wind gust speed)